Погода в Парнаибе

Бразилия     2°54′55″S   41°46′01″W
темп.,
°C
ветер,
м/с
пор.,
м/с
влажн.,
%
обл.,
%
осадки,
мм/ч
давл.,
гПа
погр.,
м
26 февраля, пт
пт2600:00+24всв2993100 0.1 1010402
03:00+24всв2695100 0.2 1008250
06:00+23в2598100 0.1 1009212
09:00+28всв367696 0.2 1010854
12:00+28св478491 1.8 1010809
15:00+27св478384 3.7 1007872
18:00+26св388694 0.1 1008531
21:00+25всв289197 0.2 1010352
27 февраля, сб
сб2700:00+24в2595100 0.1 1010189
03:00+23в1598100 0.4 1008157
06:00+22в149969 0.1 1010144
09:00+28в357838 0.9 1011744
12:00+28св34840 3.6 1010772
15:00+29св457114 5.3 1007994
18:00+26св378297 0.1 1008446
21:00+25всв268798 0.1 1010279
28 февраля, вс
вс2800:00+24всв2593100 0.3 1010210
03:00+23в1297100 2.1 100876
06:00+23юв1297100 0.8 100951
09:00+28в257591 0.8 1010845
12:00+31всв356027 0.4 10091502
15:00+30св456424 2.3 10061077
18:00+26св378138 0.1 1006456
21:00+25св288662 0.1 1008369
1 марта, пн
пн100:00+24всв249199 0.1 1008132
03:00+23всв259696 2.6 1006175
06:00+22вюв269982 1.1 1007207
09:00+28в477042 1.1 10091152
12:00+28св468256 1.2 1008947
15:00+29св576941 2.6 10051146
18:00+26св398185 0.4 1006742
21:00+25всв3108581 0.6 1008635
2 марта, вт
вт200:00+23в2693100 0.0 1009275
03:00+22в2597100 0.0 1007185
06:00+22в27966 0.0 1008292
09:00+28в477216 0.1 1010993
12:00+31всв575738 0.3 10101512
15:00+30всв576521 1.2 10071199
18:00+26всв388121 0.1 1008730
21:00+25всв3108456 0.1 1010664